EW4696 Weather Reports


Display with metric or nautical units.
time (UTC)temp
F
wind
direction
speed
MPH
gust
MPH
rain 1hr
in
rain 24hr
in
rain mn
in
humidity
%
barometer
mb
20260505055504 71 211 2.0 8.0 0.00 0.00 0.00 87 1009.8
20260505055004 71 200 2.0 8.0 0.00 0.00 0.00 87 1009.7
20260505054504 71 201 2.0 8.0 0.00 0.00 0.00 87 1009.7
20260505054003 71 203 2.0 7.0 0.00 0.00 0.00 87 1009.6
20260505053504 71 209 2.0 7.0 0.00 0.00 0.00 87 1009.7
20260505053004 71 199 2.0 11.0 0.00 0.00 0.00 87 1009.7
20260505052503 71 195 1.0 11.0 0.00 0.00 0.00 87 1009.8
20260505052003 71 205 1.0 8.0 0.00 0.00 0.00 87 1009.8
20260505051004 71 198 2.0 7.0 0.00 0.00 0.00 87 1009.7
20260505050503 71 200 2.0 7.0 0.00 0.00 0.00 86 1009.6
20260505041504 72 205 2.0 6.0 0.00 0.00 0.00 85 1009.6
20260505040504 72 211 1.0 6.0 0.00 0.00 0.00 84 1009.6
20260505040004 73 199 1.0 4.0 0.00 0.00 0.00 84 1009.7
20260505035503 73 202 1.0 9.0 0.00 0.00 0.00 84 1009.7
20260505035004 73 204 1.0 9.0 0.00 0.00 0.00 84 1009.7
20260505034003 73 209 2.0 6.0 0.00 0.00 0.00 83 1009.5
20260505033504 73 207 2.0 11.0 0.00 0.00 0.00 83 1009.5
20260505033004 73 209 2.0 11.0 0.00 0.00 0.00 83 1009.5
20260505032504 73 216 1.0 9.0 0.00 0.00 0.00 82 1009.5
20260505032003 74 234 1.0 6.0 0.00 0.00 0.00 82 1009.6
20260505031504 74 233 1.0 6.0 0.00 0.00 0.00 82 1009.5
20260505031004 74 222 1.0 6.0 0.00 0.00 0.00 82 1009.6
20260505030004 74 223 1.0 8.0 0.00 0.00 0.00 81 1009.6
20260505025503 74 225 1.0 8.0 0.00 0.00 0.00 81 1009.6
20260505025003 74 230 1.0 7.0 0.00 0.00 0.00 80 1009.5
20260505023503 75 196 1.0 5.0 0.00 0.00 0.00 80 1009.5
20260505023004 75 192 1.0 7.0 0.00 0.00 0.00 79 1009.5
20260505022503 75 189 1.0 7.0 0.00 0.00 0.00 79 1009.4
20260505022004 75 174 1.0 4.0 0.00 0.00 0.00 78 1009.5
20260505021503 75 0 0.0 4.0 0.00 0.00 0.00 78 1009.4
20260505020504 75 188 1.0 6.0 0.00 0.00 0.00 76 1009.3
20260505020003 75 208 1.0 6.0 0.00 0.00 0.00 76 1009.3
20260505015503 76 0 0.0 6.0 0.00 0.00 0.00 75 1009.4
20260505014504 76 0 0.0 3.0 0.00 0.00 0.00 74 1009.4
20260505014003 76 199 1.0 4.0 0.00 0.00 0.00 73 1009.3
20260505013504 76 187 1.0 4.0 0.00 0.00 0.00 73 1009.3
20260505013003 76 169 1.0 5.0 0.00 0.00 0.00 73 1009.3
20260505012504 76 168 1.0 5.0 0.00 0.00 0.00 72 1009.2
20260505012004 76 167 1.0 4.0 0.00 0.00 0.00 72 1009.3
20260505011504 77 179 1.0 4.0 0.00 0.00 0.00 71 1009.3
20260505011004 77 197 1.0 6.0 0.00 0.00 0.00 71 1009.2
20260505010503 77 202 1.0 6.0 0.00 0.00 0.00 70 1009.2
20260505010004 77 211 1.0 6.0 0.00 0.00 0.00 70 1009.2
20260505005503 77 211 1.0 6.0 0.00 0.00 0.00 70 1009.1
20260505005004 77 212 1.0 4.0 0.00 0.00 0.00 69 1009.3
20260505004003 78 204 1.0 7.0 0.00 0.00 0.00 69 1009.1
20260505003504 78 193 1.0 7.0 0.00 0.00 0.00 69 1009.1
20260505002504 78 122 1.0 5.0 0.00 0.00 0.00 68 1009.1
20260505001004 78 203 2.0 7.0 0.00 0.00 0.00 67 1008.9
20260505000504 78 195 2.0 7.0 0.00 0.00 0.00 66 1009.0
20260505000003 79 201 2.0 7.0 0.00 0.00 0.00 67 1009.1
20260504235504 79 195 2.0 7.0 0.00 0.00 0.00 67 1009.2
20260504235003 79 183 2.0 7.0 0.00 0.00 0.00 67 1009.3
20260504234004 79 201 2.0 7.0 0.00 0.00 0.00 67 1009.4
20260504233503 79 190 2.0 7.0 0.00 0.00 0.00 66 1009.5
20260504232503 79 191 2.0 7.0 0.00 0.00 0.00 66 1009.4
20260504232003 80 202 2.0 8.0 0.00 0.00 0.00 65 1009.4
20260504231504 80 205 2.0 8.0 0.00 0.00 0.00 65 1009.5
20260504231003 80 220 2.0 7.0 0.00 0.00 0.00 64 1009.5
20260504230004 80 185 2.0 7.0 0.00 0.00 0.00 65 1009.6
20260504225503 80 167 2.0 7.0 0.00 0.00 0.00 64 1009.7
20260504225004 81 185 2.0 5.0 0.00 0.00 0.00 64 1009.8
20260504224503 81 203 2.0 7.0 0.00 0.00 0.00 63 1009.8
20260504224003 82 184 2.0 7.0 0.00 0.00 0.00 62 1009.9
20260504223504 82 190 1.0 4.0 0.00 0.00 0.00 63 1009.9
20260504223004 82 220 2.0 6.0 0.00 0.00 0.00 62 1009.8
20260504222004 81 197 2.0 11.0 0.00 0.00 0.00 63 1009.9
20260504221503 82 176 2.0 8.0 0.00 0.00 0.00 62 1010.0
20260504221004 82 179 2.0 5.0 0.00 0.00 0.00 62 1010.0
20260504215504 82 185 2.0 7.0 0.00 0.00 0.00 63 1010.2
20260504215003 82 188 2.0 8.0 0.00 0.00 0.00 62 1010.1
20260504214504 82 185 2.0 8.0 0.00 0.00 0.00 62 1010.0
20260504213503 82 197 2.0 6.0 0.00 0.00 0.00 63 1010.1
20260504212503 82 198 2.0 7.0 0.00 0.00 0.00 62 1010.5
20260504212004 82 205 2.0 6.0 0.00 0.00 0.00 62 1010.8
20260504211504 82 200 2.0 5.0 0.00 0.00 0.00 63 1010.8
20260504211003 82 168 2.0 6.0 0.00 0.00 0.00 63 1010.8
20260504210504 82 171 2.0 6.0 0.00 0.00 0.00 64 1010.9
20260504210004 81 187 2.0 7.0 0.00 0.00 0.00 65 1011.1
20260504205504 81 183 2.0 7.0 0.00 0.00 0.00 64 1011.1
20260504204503 80 186 1.0 5.0 0.00 0.00 0.00 65 1011.3
20260504204004 81 205 1.0 5.0 0.00 0.00 0.00 64 1011.3
20260504203503 81 186 1.0 6.0 0.00 0.00 0.00 65 1011.4
20260504202504 81 174 2.0 6.0 0.00 0.00 0.00 63 1011.7
20260504202003 81 176 2.0 8.0 0.00 0.00 0.00 63 1011.8
20260504201503 81 176 2.0 8.0 0.00 0.00 0.00 63 1011.9
20260504200504 81 210 2.0 6.0 0.00 0.00 0.00 64 1012.1
20260504200004 81 203 2.0 6.0 0.00 0.00 0.00 64 1012.2
20260504195504 81 214 2.0 5.0 0.00 0.00 0.00 65 1012.3
20260504195004 81 240 2.0 5.0 0.00 0.00 0.00 63 1012.3
20260504194503 81 226 2.0 6.0 0.00 0.00 0.00 62 1012.5
20260504194004 82 199 2.0 8.0 0.00 0.00 0.00 63 1012.6
20260504193504 82 189 2.0 8.0 0.00 0.00 0.00 61 1012.5
20260504192503 82 168 2.0 7.0 0.00 0.00 0.00 64 1012.7
20260504192004 81 192 2.0 10.0 0.00 0.00 0.00 64 1012.6
20260504191503 81 199 2.0 11.0 0.00 0.00 0.00 64 1012.9
20260504191003 81 187 2.0 11.0 0.00 0.00 0.00 64 1013.0
20260504190504 80 184 2.0 8.0 0.00 0.00 0.00 66 1013.1
20260504185503 79 201 1.0 5.0 0.00 0.00 0.00 66 1013.0
20260504185004 79 209 2.0 7.0 0.00 0.00 0.00 66 1013.0
20260504184003 79 197 2.0 5.0 0.00 0.00 0.00 66 1013.1
20260504183503 79 191 2.0 9.0 0.00 0.00 0.00 68 1013.2
20260504183004 78 191 2.0 9.0 0.00 0.00 0.00 67 1013.4
20260504182504 78 222 2.0 9.0 0.00 0.00 0.00 68 1013.5
20260504182003 78 243 2.0 9.0 0.00 0.00 0.00 67 1013.7
20260504181504 78 207 2.0 8.0 0.00 0.00 0.00 67 1013.9
20260504181004 78 171 1.0 8.0 0.00 0.00 0.00 68 1013.8
20260504180504 78 185 1.0 6.0 0.00 0.00 0.00 70 1013.8
20260504180004 77 165 2.0 6.0 0.00 0.00 0.00 73 1013.8
20260504175504 76 174 2.0 8.0 0.00 0.00 0.00 72 1013.8
20260504175003 75 208 1.0 8.0 0.00 0.00 0.00 74 1013.9
20260504174503 74 184 2.0 7.0 0.00 0.00 0.00 73 1014.1
20260504174004 74 187 2.0 6.0 0.00 0.00 0.00 73 1014.1
20260504173504 74 201 2.0 8.0 0.00 0.00 0.00 72 1014.4
20260504172503 74 187 1.0 6.0 0.00 0.00 0.00 72 1014.6
20260504172004 74 193 2.0 7.0 0.00 0.00 0.00 74 1014.7
20260504171504 74 195 1.0 7.0 0.00 0.00 0.00 73 1014.9
20260504170503 74 165 2.0 9.0 0.00 0.00 0.00 74 1014.8
20260504151003 71 203 2.0 9.0 0.00 0.00 0.00 75 1015.6
20260504150504 72 205 2.0 7.0 0.00 0.00 0.00 74 1015.5
20260504141003 67 189 1.0 6.0 0.00 0.00 0.00 79 1015.7
20260504140503 67 183 1.0 5.0 0.00 0.00 0.00 80 1015.7
20260504130504 63 205 1.0 4.0 0.00 0.00 0.00 84 1015.6
20260504110504 60 0 0.0 4.0 0.00 0.00 0.00 85 1015.1
20260504100504 61 200 1.0 6.0 0.00 0.00 0.00 83 1015.2
20260504082003 63 221 1.0 5.0 0.00 0.00 0.00 80 1015.7
20260504081504 63 0 0.0 4.0 0.00 0.00 0.00 80 1015.7
20260504081004 63 229 1.0 4.0 0.00 0.00 0.00 80 1015.9
20260504080503 63 207 1.0 5.0 0.00 0.00 0.00 79 1015.8